Dewpoint
59 61 61 63 64 64 65 65 65 65 65 65 66 66 66 66 65 65 65 65 65 65 65 65 65 65 65 65 64 64 64 64 64 64 64 64 64 64 64 64 64 64 64 64 65 65 65 65 65 64 64 64 64 64 64 64 64 64 64 64 64 64 64 64 65 65 65 65 66 66 66 66 66 66 66 66 66 66 66 66 66 66 66 66 66 66 66 66 66 65 65 65 65 65 64 65 65 63 61 59 58 57 61
58 60 61 62 63 63 63 64 64 64 65 65 65 65 65 66 65 65 65 65 65 64 64 64 64 64 64 64 64 64 64 64 64 64 64 64 64 64 64 64 64 64 64 64 64 65 65 64 64 64 64 64 64 64 64 64 64 64 64 64 64 64 64 64 64 64 65 65 65 65 65 65 65 65 65 65 65 65 66 66 66 66 66 66 66 66 66 65 65 65 65 65 65 64 64 64 64 62 60 58 57 58 61
57 59 60 61 62 62 62 62 61 62 63 64 65 65 65 65 65 65 65 65 64 64 64 64 64 64 64 64 64 64 64 64 64 64 64 64 64 64 64 64 65 65 64 64 64 64 64 64 64 64 64 64 64 64 64 64 63 63 63 63 63 63 63 63 63 64 64 65 65 65 65 65 65 65 65 65 65 65 65 65 65 65 65 65 65 65 65 65 65 65 65 64 64 64 64 63 62 60 58 57 57 63 65
55 57 58 59 60 61 61 61 59 59 60 62 63 64 64 65 65 65 65 64 64 64 64 64 64 64 64 64 64 64 64 64 64 64 64 64 64 64 64 64 64 64 64 64 64 64 64 64 64 64 64 64 63 64 64 64 63 63 63 63 63 63 63 63 63 63 64 64 65 65 65 65 65 65 64 64 64 64 64 64 65 65 65 65 65 64 64 64 64 64 64 64 64 64 63 61 59 57 57 58 60 65 66
53 54 55 56 56 57 58 58 57 56 57 58 60 61 63 64 65 65 64 64 64 64 64 64 64 64 64 64 64 64 64 64 64 64 64 64 64 64 64 64 64 63 63 63 64 64 63 63 64 63 63 63 63 63 63 63 63 63 63 63 63 63 63 63 63 63 63 64 64 64 64 64 64 64 64 64 64 64 64 64 64 64 64 64 64 64 64 64 63 64 64 64 64 63 61 58 57 57 58 60 61 65 65
50 52 53 54 55 55 55 55 55 53 53 54 57 60 63 64 65 64 63 63 63 63 63 63 63 63 64 64 64 64 63 63 63 63 63 64 64 64 64 63 63 62 61 60 61 61 62 63 63 62 62 63 63 63 63 63 63 63 63 63 63 63 63 63 63 63 63 64 64 64 64 64 64 64 64 64 64 64 64 64 64 64 64 64 64 63 63 63 63 64 64 64 63 60 58 57 57 56 57 59 63 65 64
48 50 52 54 55 55 55 56 55 53 52 52 55 59 62 63 63 63 63 63 62 62 63 63 63 63 63 63 63 63 63 62 61 61 62 63 63 63 62 61 60 59 57 56 56 57 59 61 60 61 61 62 62 62 62 62 62 63 63 63 63 63 63 63 63 63 63 63 64 64 64 64 64 64 64 64 64 64 64 64 62 62 62 63 63 64 64 64 64 64 64 62 60 57 57 56 53 50 49 51 55 57 59
48 49 51 52 54 55 56 57 57 56 55 55 57 60 61 62 63 64 65 64 60 61 61 62 62 63 63 63 62 62 62 62 60 60 61 61 61 61 60 58 57 56 55 53 53 54 56 57 58 60 61 61 62 62 62 62 62 62 63 63 63 63 63 63 63 63 63 63 63 64 64 64 64 64 64 64 64 64 64 63 61 60 60 61 62 63 63 64 64 63 62 61 58 56 54 51 47 44 45 46 47 48 51
48 48 49 50 52 53 54 55 56 57 58 58 61 61 62 64 65 66 66 64 60 59 60 61 61 62 62 62 61 61 61 61 61 60 60 60 60 59 57 57 57 57 56 54 53 56 58 60 59 60 61 62 62 62 62 62 62 62 63 63 63 63 63 63 63 63 63 63 63 64 64 64 64 64 64 64 64 64 63 62 61 59 60 60 60 61 61 63 63 61 59 57 53 51 48 45 43 43 44 46 46 45 48
48 48 48 49 52 52 53 53 54 56 57 58 59 60 62 63 64 64 63 62 61 61 61 61 61 61 61 60 58 60 61 62 62 61 60 59 59 58 57 57 58 59 59 57 57 59 61 62 61 61 61 61 62 62 62 62 62 62 63 63 63 63 63 63 63 63 63 63 63 64 64 64 64 64 64 64 64 63 61 60 59 57 57 57 59 58 59 59 59 57 53 50 48 46 45 44 43 43 44 45 44 43 45
48 48 48 50 52 52 52 52 52 54 56 57 58 59 60 61 61 61 61 61 61 62 62 61 59 60 59 59 59 61 64 65 63 61 60 60 59 59 59 59 60 62 61 61 61 60 61 61 61 60 59 60 61 61 61 61 61 61 61 62 62 63 62 61 61 62 62 63 63 63 63 63 64 63 62 61 61 59 58 57 57 54 52 52 53 54 54 53 53 50 48 47 47 47 47 46 45 45 45 45 43 42 43
48 48 49 50 52 52 53 52 52 53 55 57 58 59 59 59 58 59 61 61 62 62 61 60 60 59 59 60 63 64 64 64 61 60 60 60 60 61 61 61 62 64 62 60 58 57 57 58 58 58 58 58 57 59 60 60 60 60 60 61 61 62 61 59 57 60 61 61 62 61 61 61 62 61 60 58 57 56 56 55 53 51 49 48 48 49 49 50 52 53 52 51 50 51 51 51 50 50 48 46 43 41 42
47 48 49 50 52 52 53 54 52 54 56 57 59 59 59 58 58 59 60 61 64 63 61 60 59 60 60 61 63 62 61 61 60 59 60 60 61 61 62 62 63 63 61 58 57 57 57 58 59 59 59 58 57 57 57 58 58 57 57 57 58 61 60 57 54 55 57 59 61 60 59 58 59 59 58 57 55 54 52 50 47 46 46 47 47 48 51 53 56 55 54 54 55 55 56 56 55 54 52 49 46 43 42
47 48 49 50 51 52 53 53 53 54 56 57 59 59 60 60 59 59 60 62 64 64 61 59 59 60 61 63 64 62 60 59 59 60 61 61 61 62 62 61 61 60 59 58 57 57 58 58 58 61 60 58 58 57 56 55 54 53 52 52 52 59 60 57 53 51 49 51 56 55 53 52 54 55 54 53 51 49 47 44 41 40 42 45 48 49 52 55 57 56 57 59 60 59 59 58 57 55 53 52 49 45 44
48 47 48 49 50 51 52 53 53 54 55 56 58 59 60 60 60 60 61 62 64 62 61 61 61 63 64 65 66 63 61 60 60 61 61 61 63 64 62 61 59 58 57 57 57 57 57 57 55 55 54 53 56 53 51 50 50 48 48 48 48 51 52 51 49 48 47 46 47 48 48 48 48 48 47 46 44 43 43 42 40 39 38 39 46 48 50 52 55 57 59 61 61 61 60 58 57 56 54 52 53 48 47
47 47 48 48 49 49 51 52 53 53 54 55 57 58 59 60 60 61 62 62 61 62 61 62 63 64 64 64 63 62 61 61 61 61 62 62 63 63 62 61 59 57 57 57 56 55 54 52 51 52 51 50 49 48 47 47 47 47 46 46 46 48 48 48 47 46 46 46 46 46 47 47 46 46 45 44 43 42 42 42 42 40 37 36 36 43 46 47 50 53 55 56 56 58 58 57 57 56 54 52 52 50 48
46 47 47 47 48 48 50 52 52 52 52 52 54 56 58 60 60 60 61 61 61 61 62 63 62 61 61 61 61 61 61 61 61 61 62 63 62 61 61 61 61 58 56 55 54 53 52 51 49 49 49 48 47 46 46 46 46 46 45 45 45 46 47 47 46 45 46 46 46 47 47 46 45 45 44 44 43 42 41 41 42 41 39 35 33 36 40 43 43 47 49 51 51 52 52 52 52 51 49 47 46 46 46
46 47 47 47 47 48 50 52 52 51 51 51 52 56 57 58 58 59 59 60 61 61 62 63 62 61 60 60 60 60 61 61 61 62 63 62 61 61 61 61 61 58 55 53 51 51 51 50 49 49 48 48 46 46 46 47 47 46 46 45 45 46 47 47 46 45 45 46 47 47 46 45 45 44 44 44 43 43 42 41 41 40 39 36 34 34 37 40 40 39 42 45 48 48 48 48 47 46 45 43 42 43 43
47 47 47 47 47 48 49 51 51 50 50 50 51 54 55 55 56 57 58 59 60 60 60 61 61 60 59 59 59 59 60 61 60 61 61 61 60 59 59 60 59 56 53 51 51 51 50 50 49 48 48 48 47 48 48 48 48 48 48 47 47 48 48 48 48 47 46 46 47 47 46 46 45 44 43 43 43 43 43 42 41 41 40 38 35 36 36 36 38 37 35 36 40 42 43 43 43 43 42 41 39 40 42
47 47 47 46 46 47 48 50 50 49 49 50 52 53 53 53 54 54 55 57 58 59 60 60 60 59 59 59 58 59 60 60 59 59 59 59 58 57 58 58 56 53 51 50 50 50 51 52 51 48 48 48 48 47 47 48 48 49 49 49 49 50 49 49 48 49 49 48 48 48 48 47 45 43 42 42 41 41 41 41 42 42 41 39 37 35 34 34 34 34 34 32 31 34 36 37 37 37 37 37 38 37 39
47 47 47 47 46 47 48 49 50 49 49 51 53 52 52 52 52 52 53 54 57 58 58 58 58 58 59 60 61 59 59 59 58 58 58 58 57 57 57 57 55 53 52 52 52 52 52 52 51 49 48 48 49 48 48 48 49 50 50 50 50 51 50 50 50 50 50 50 50 49 48 47 45 44 43 43 43 42 41 40 41 41 40 38 36 35 34 33 33 34 33 32 30 30 31 33 34 32 31 31 34 35 36
47 47 48 48 46 47 48 50 49 48 49 52 53 52 52 52 51 51 52 54 58 57 55 55 58 57 59 62 65 61 60 59 57 58 58 58 57 58 58 57 56 55 55 55 54 54 54 53 53 51 50 49 50 50 50 49 51 51 50 50 51 52 51 51 51 51 50 50 50 49 48 47 46 46 46 45 44 43 43 42 42 42 40 39 36 35 34 33 33 32 32 31 31 30 30 31 32 32 30 29 28 30 32
47 48 49 49 48 47 48 48 49 48 50 52 53 52 52 51 50 50 52 54 57 55 52 53 58 58 58 59 61 61 61 59 57 57 58 58 57 57 58 58 57 57 57 57 56 56 55 55 54 53 52 51 51 52 51 51 51 51 51 51 52 52 51 50 50 49 48 48 48 48 47 46 45 45 45 46 45 44 44 43 42 40 40 39 37 35 34 33 32 31 30 30 30 30 30 30 31 33 31 30 27 26 27
49 49 50 50 48 48 48 48 48 48 49 51 52 52 52 51 50 51 52 54 55 53 53 54 59 59 57 56 57 60 60 59 57 57 57 58 57 58 58 58 58 58 58 57 55 55 55 56 57 55 54 53 53 53 53 52 52 51 51 51 51 51 51 50 48 47 47 47 47 47 47 46 45 44 44 44 45 45 44 43 43 41 40 40 38 37 35 34 33 32 31 30 31 30 30 29 29 30 31 30 29 27 26
54 52 51 50 49 48 48 48 47 48 49 51 51 51 52 52 50 51 52 52 54 53 54 56 60 60 57 55 56 57 57 56 56 56 57 58 57 58 58 58 57 57 58 58 57 55 56 57 60 58 57 56 55 54 53 52 52 52 51 51 51 51 50 49 48 48 48 48 48 48 47 46 45 44 44 44 44 45 44 44 43 42 40 39 38 37 35 34 33 32 32 31 31 30 30 29 28 29 30 30 30 29 28
60 55 52 51 51 48 47 46 46 47 49 50 50 51 51 51 51 52 52 52 52 53 56 58 60 60 58 57 56 56 56 55 56 57 58 59 58 58 57 58 58 58 58 58 57 56 56 58 59 60 59 57 56 55 53 53 52 52 52 52 52 52 51 50 49 49 49 50 50 50 48 47 45 44 44 44 44 44 44 43 43 42 41 40 39 37 36 34 34 32 31 31 31 30 30 30 29 28 29 30 30 30 29
60 56 52 51 51 49 48 46 47 48 50 51 50 51 50 49 51 52 52 52 53 54 56 57 58 57 57 57 57 56 56 55 56 58 59 59 58 58 58 57 58 58 58 57 56 57 56 56 57 58 58 57 56 55 54 53 52 53 53 53 53 52 52 52 50 50 49 49 48 48 47 46 45 45 45 45 46 45 45 44 44 43 43 42 40 39 37 36 35 33 32 31 31 31 31 31 30 29 28 29 29 29 29
59 57 53 51 51 50 48 48 48 49 51 51 50 50 49 49 50 50 51 52 53 54 54 55 55 54 55 55 56 56 56 55 56 57 58 58 58 59 58 58 58 58 58 58 57 57 56 56 56 58 57 56 56 56 55 55 54 53 53 53 53 52 52 51 49 48 48 48 47 47 46 46 46 46 46 45 45 45 45 45 44 43 43 42 41 39 39 38 37 35 34 33 32 32 32 32 30 30 29 29 29 29 29
63 59 55 52 52 51 49 48 48 49 50 50 49 49 49 49 50 49 50 52 52 53 52 51 51 51 52 52 53 53 53 54 55 57 58 58 57 58 59 58 59 58 59 60 58 57 57 57 57 56 55 54 55 54 53 53 53 53 52 52 52 51 50 49 48 48 47 47 47 46 46 46 47 46 46 46 46 46 45 45 45 43 42 42 41 40 39 38 37 37 36 35 34 33 33 32 31 30 30 29 29 29 29
65 60 56 52 52 52 51 49 48 48 49 50 49 48 48 49 51 50 50 51 50 51 50 48 49 50 50 50 50 50 51 52 54 57 57 57 56 56 56 57 58 57 58 59 59 58 58 58 57 57 56 55 54 52 52 52 52 52 52 52 51 50 49 48 48 48 48 47 47 46 47 47 48 48 48 47 46 46 45 44 44 43 42 41 40 39 39 38 37 38 37 36 36 35 34 33 32 31 30 30 29 29 30
59 58 55 53 52 52 51 50 49 49 49 49 49 49 49 49 51 50 49 49 49 49 48 47 48 49 49 49 49 50 50 51 53 55 56 56 54 53 52 52 55 54 54 55 56 56 56 57 57 57 57 57 56 53 52 52 52 52 52 52 51 51 50 49 48 48 48 48 48 47 47 47 47 47 47 46 46 45 44 44 43 43 41 40 39 38 37 37 36 37 37 36 36 36 35 34 33 32 31 30 30 30 30
53 55 54 52 52 52 52 51 49 49 49 49 49 50 49 49 49 48 47 46 46 46 46 46 48 49 49 49 49 49 49 50 52 53 54 54 52 52 51 50 52 51 51 51 52 54 54 56 57 57 57 57 57 55 54 53 53 52 52 52 52 51 50 50 49 48 47 47 47 46 45 45 44 44 43 43 43 43 43 42 41 41 40 39 38 37 36 35 35 36 36 36 36 36 35 34 34 33 32 32 31 31 31
50 54 54 52 52 52 52 51 50 49 49 49 49 48 48 48 48 47 46 45 45 46 46 47 48 49 50 49 49 48 48 49 50 52 52 52 49 50 50 50 51 49 49 49 50 52 54 56 58 57 56 57 57 57 56 54 54 53 53 52 52 51 50 50 49 48 47 47 46 45 44 44 43 43 43 42 42 42 41 41 40 39 39 38 38 37 36 35 35 34 34 35 35 35 34 34 34 34 35 35 36 34 32
49 53 53 53 54 54 52 51 50 49 49 49 49 48 48 47 48 46 46 46 46 48 48 48 48 50 50 49 48 48 48 48 50 52 52 51 48 48 48 48 51 50 48 48 48 50 52 54 56 53 52 53 55 56 55 54 53 52 53 53 52 52 51 50 49 48 48 47 46 46 45 44 44 43 43 43 42 42 41 40 40 39 39 38 37 37 37 36 35 34 34 34 35 35 35 34 34 35 36 38 37 35 33
49 52 53 53 53 54 52 51 49 49 50 50 50 49 49 48 48 47 46 47 48 49 49 49 50 50 49 49 49 48 48 48 49 51 51 50 48 47 47 48 51 50 48 47 47 48 50 52 53 51 50 50 50 51 51 51 51 50 51 51 51 50 50 49 48 48 47 47 46 46 45 44 43 43 42 42 43 42 41 41 40 39 39 39 38 38 37 35 34 34 34 34 34 34 34 34 34 35 36 36 36 35 34
49 52 53 53 52 52 52 50 48 49 50 50 49 51 52 51 49 48 48 48 48 49 49 49 49 48 48 47 47 48 48 48 49 49 48 48 47 47 47 49 52 49 48 47 47 48 50 52 52 51 50 48 47 47 47 48 48 48 48 48 49 48 48 47 46 45 45 44 44 44 43 43 42 41 40 41 42 41 40 39 39 39 39 39 38 37 36 36 35 35 34 34 33 34 34 34 34 35 35 34 34 34 34
48 51 52 53 52 52 51 49 48 48 49 50 49 51 52 53 52 51 49 48 48 47 47 47 46 45 45 45 45 46 47 47 47 47 46 45 45 46 47 49 52 49 48 47 48 48 50 51 52 52 51 49 47 46 46 47 47 47 47 47 47 47 46 45 44 43 42 42 42 42 41 41 41 41 40 40 41 41 40 38 37 37 38 38 38 38 37 38 39 37 36 35 34 34 33 33 34 35 35 34 34 34 34
46 50 52 52 51 51 50 48 47 47 48 48 48 48 51 53 53 52 49 47 45 43 43 43 43 43 43 43 44 45 47 47 45 45 44 43 44 44 44 46 50 48 48 48 49 50 51 52 52 52 51 50 48 46 46 45 45 46 47 47 46 46 44 43 42 41 41 41 41 41 40 41 42 43 42 41 41 41 41 40 39 38 38 38 38 38 38 38 39 37 36 36 35 34 33 33 36 34 34 34 34 34 33
45 48 50 51 50 50 49 48 46 45 46 47 47 48 50 52 52 49 47 44 42 40 39 40 42 43 43 43 44 47 48 46 45 44 43 43 43 43 43 43 47 47 47 47 47 47 47 48 50 49 49 48 47 45 44 43 43 43 44 45 45 44 43 42 43 43 43 43 44 43 43 42 43 44 44 43 42 42 42 41 41 39 40 41 40 39 38 37 37 36 36 35 35 34 34 34 36 33 33 34 34 33 33
43 46 48 49 49 48 48 48 47 45 45 46 48 49 50 51 49 46 43 40 39 38 39 39 40 42 43 43 43 46 47 46 43 43 43 42 43 42 42 42 42 43 44 46 47 45 44 45 48 47 46 46 44 43 42 41 40 41 42 43 44 43 43 43 43 45 45 46 48 47 46 44 44 44 44 44 43 43 43 42 42 41 42 42 41 39 38 36 35 35 34 34 34 34 33 33 33 32 32 33 33 33 33
42 44 46 47 48 47 47 47 47 46 46 47 49 49 49 48 46 43 40 38 39 39 39 40 41 41 42 43 43 43 44 43 42 42 42 43 43 42 42 42 41 41 42 43 43 44 44 44 47 46 46 45 43 42 41 41 41 41 42 43 43 44 44 43 44 45 46 46 45 45 45 46 44 43 43 44 44 43 42 43 43 43 43 43 41 40 39 37 36 34 34 34 33 33 33 34 33 31 31 31 32 33 33
41 43 43 44 46 46 46 46 46 46 47 48 48 47 46 45 43 41 40 40 41 41 41 41 42 42 42 42 41 40 41 42 45 45 44 43 43 42 42 42 41 42 43 43 43 44 45 45 47 46 45 44 43 43 42 42 43 43 43 43 44 43 43 42 43 43 44 43 43 43 43 44 44 42 41 42 43 43 43 43 42 43 44 43 41 40 40 39 39 37 35 34 32 32 33 34 34 32 32 31 31 31 31
41 42 43 43 44 45 45 45 45 46 47 47 46 45 43 41 40 41 42 42 42 41 40 39 38 39 41 43 42 40 39 39 39 40 42 42 40 40 41 41 41 42 43 43 43 43 44 45 45 45 44 43 43 43 43 43 43 43 43 43 43 42 41 40 40 40 40 40 41 42 43 43 44 43 42 41 41 42 42 42 42 43 43 43 43 42 41 40 39 38 36 34 33 31 31 31 32 31 30 31 31 31 31
41 41 42 43 43 44 44 44 45 47 47 46 45 43 43 42 42 42 41 40 40 39 39 38 37 37 38 38 39 39 38 38 38 39 39 38 39 40 41 42 42 42 41 41 42 43 43 43 43 43 43 42 41 41 41 41 41 41 40 41 41 41 40 39 39 39 39 39 39 39 40 41 43 43 43 42 41 40 39 39 41 42 43 43 43 43 42 40 39 37 36 35 35 34 32 30 30 30 29 29 31 32 32
40 41 42 43 43 44 47 49 47 46 45 44 43 42 42 42 43 40 39 38 38 37 37 37 38 39 38 38 39 38 37 37 38 40 41 42 43 43 42 42 42 43 43 42 42 43 43 43 43 42 41 40 40 40 41 41 41 40 39 40 41 41 40 39 39 39 39 39 39 40 41 41 41 41 42 42 41 40 39 39 39 41 42 42 43 43 42 41 39 38 37 37 36 34 33 30 30 30 29 29 30 31 31
39 40 41 42 43 43 43 44 44 43 43 42 41 40 41 41 39 38 37 37 36 37 37 37 39 38 37 37 37 36 37 39 42 43 45 46 47 46 43 42 42 43 43 43 42 42 43 42 42 41 40 40 39 40 40 40 40 40 40 39 40 40 40 39 38 38 38 39 39 40 41 42 42 42 42 42 42 41 40 40 40 40 41 42 42 42 43 43 41 39 38 36 34 33 32 31 30 30 29 29 30 31 30
40 40 41 42 43 42 42 42 41 40 40 39 39 39 40 39 37 37 36 36 36 36 37 37 36 37 37 38 37 37 38 39 43 43 43 44 44 43 43 43 42 42 43 43 43 43 42 42 42 40 39 39 39 40 40 40 40 40 39 39 39 39 39 38 38 38 39 39 39 39 40 41 42 41 41 42 43 42 41 41 40 40 41 42 42 42 42 43 42 41 39 38 36 35 34 33 32 33 32 30 30 31 32
41 41 41 41 40 40 39 39 39 38 37 38 38 40 39 37 36 36 36 36 36 36 36 36 36 37 37 38 38 39 40 41 40 41 43 44 45 44 44 43 42 43 43 43 43 43 42 41 41 40 39 39 38 39 40 40 40 39 39 39 39 39 39 38 38 38 38 39 39 39 39 40 41 41 41 41 42 42 42 41 40 39 40 40 42 42 42 42 41 41 41 40 39 39 37 36 35 34 34 32 31 31 32
40 39 39 39 38 38 38 37 36 36 36 37 38 39 37 35 35 36 37 38 38 38 38 38 37 37 37 39 40 42 43 43 41 43 45 46 45 44 43 43 43 42 41 41 43 43 43 42 41 40 39 39 38 39 40 40 39 39 38 38 39 39 39 38 38 37 38 38 39 39 40 41 42 42 41 41 42 43 42 42 41 40 40 40 40 41 42 41 40 41 43 43 41 41 40 39 38 36 35 34 33 31 31
39 39 38 37 36 37 37 36 33 34 35 36 36 36 35 35 34 35 37 38 38 39 39 39 38 37 38 39 40 40 42 43 43 43 44 44 43 42 42 42 42 41 40 40 40 41 42 42 42 41 40 39 39 38 39 39 39 39 38 38 39 40 39 38 38 37 38 39 39 38 40 42 42 42 42 42 43 43 43 43 42 42 42 41 41 40 40 41 41 42 43 44 43 43 42 42 41 39 37 36 34 33 32
38 37 36 36 35 36 37 37 34 35 36 36 35 37 37 36 37 37 37 38 38 39 39 39 38 38 38 38 38 40 42 43 43 43 42 42 41 41 41 41 41 41 40 39 38 38 40 41 41 40 40 39 39 39 39 40 39 39 39 39 40 41 40 39 38 38 39 39 39 39 39 41 42 42 42 42 43 43 43 43 43 43 42 42 42 41 40 40 41 41 41 42 43 46 46 46 45 43 40 39 37 36 34
35 36 36 35 34 33 34 35 34 35 37 38 36 38 39 39 38 39 39 38 38 39 39 38 39 39 39 39 39 42 43 43 42 42 41 40 40 40 40 40 41 41 40 39 38 38 39 40 43 40 40 40 40 39 38 38 38 38 38 39 40 41 40 39 39 39 39 39 38 38 38 39 40 41 41 42 42 42 43 43 43 43 42 42 42 41 40 40 40 40 40 40 40 46 48 49 48 44 42 40 39 38 36
33 34 34 33 31 31 32 32 33 34 37 38 37 39 41 42 40 40 40 39 39 39 39 38 39 40 40 39 40 42 43 43 42 42 41 40 39 39 39 40 40 41 41 40 38 39 39 39 41 40 40 40 39 38 37 36 36 36 37 37 39 41 40 39 39 39 39 39 39 38 39 39 39 40 40 40 41 41 41 42 42 42 41 41 41 41 40 40 40 40 40 40 39 41 44 46 45 42 40 40 39 39 37
32 33 33 32 30 31 31 32 34 34 36 37 38 39 40 41 41 42 41 40 41 43 41 39 39 39 39 39 40 41 41 42 41 41 40 39 39 39 39 39 39 39 40 40 39 39 38 39 40 39 39 40 39 38 36 36 36 36 37 38 40 41 40 39 39 39 39 39 39 39 40 40 40 40 40 40 40 40 40 41 41 41 41 41 41 41 41 41 41 41 40 40 39 39 39 39 39 39 39 39 39 39 38
31 32 32 31 30 31 32 33 34 35 37 39 40 39 39 39 40 41 40 40 42 44 43 41 39 39 39 39 40 40 40 40 40 40 39 39 38 38 38 38 38 39 39 40 40 39 39 39 41 38 39 40 39 36 36 37 38 38 38 39 41 40 39 39 39 39 39 39 39 40 40 41 40 40 39 39 40 40 40 41 42 41 41 41 41 41 41 40 40 41 40 40 39 39 38 37 38 38 39 39 39 39 38
31 33 33 32 30 31 32 33 34 35 38 41 43 41 39 39 39 39 39 39 42 43 43 42 41 40 40 40 40 39 39 39 39 38 37 37 37 36 36 37 38 39 39 39 40 40 40 40 41 38 37 38 36 35 36 37 38 37 38 38 39 39 39 39 39 39 39 39 39 40 40 40 40 39 39 39 39 40 41 42 43 42 42 42 42 42 41 40 40 40 40 40 40 39 39 39 39 40 41 41 41 40 39
32 33 34 33 31 31 32 33 34 36 38 40 42 41 40 39 41 41 41 41 42 43 43 43 43 42 41 40 40 39 39 38 38 37 36 36 36 36 37 38 39 39 39 40 41 40 40 40 40 39 38 36 35 36 37 37 37 38 38 39 39 39 39 39 39 39 39 40 40 40 40 40 40 39 39 39 40 41 42 42 43 43 42 42 42 42 41 41 41 41 41 41 41 41 40 41 41 43 43 44 43 42 42
33 34 34 33 31 32 32 33 34 35 37 38 38 39 39 40 41 41 42 43 43 43 43 44 45 43 42 41 40 39 39 39 38 38 37 37 36 37 38 39 39 39 39 40 40 40 40 39 39 39 38 37 35 37 38 38 38 39 39 39 38 38 38 38 39 39 40 40 40 40 40 40 39 39 39 39 40 41 42 42 43 43 42 41 41 42 42 42 41 42 42 41 41 41 41 41 41 42 43 43 43 43 43
35 35 34 33 32 33 33 33 34 34 35 36 37 37 39 39 40 40 40 41 42 43 42 42 42 43 43 42 41 40 40 39 39 39 39 38 37 37 38 38 38 38 38 38 38 39 39 38 38 38 38 38 35 36 37 38 39 38 38 38 37 37 37 38 38 39 40 41 40 40 40 40 39 39 39 40 41 41 42 42 43 43 42 42 42 43 43 42 42 42 42 41 41 41 40 40 40 40 41 41 41 41 41
34 34 34 33 33 33 34 34 34 35 35 36 37 38 39 39 39 39 40 41 42 43 42 41 42 43 43 43 43 42 41 40 40 39 39 39 39 38 38 38 38 38 38 37 37 38 38 37 37 37 38 38 36 37 37 37 38 38 37 36 35 36 38 39 39 39 40 41 40 40 40 39 39 39 40 41 41 42 43 43 43 43 43 43 43 43 43 43 42 42 42 41 41 40 40 40 41 41 41 41 41 41 41
35 34 34 34 34 35 35 36 36 36 36 37 38 38 38 38 39 39 39 40 41 42 42 43 43 43 44 44 44 43 42 41 40 39 39 39 39 39 39 39 39 38 38 38 38 38 38 38 38 37 37 37 37 38 38 38 39 38 38 37 37 37 38 39 40 40 41 40 40 40 39 39 40 40 41 42 43 43 43 43 43 43 43 43 43 43 43 43 42 42 42 41 41 41 41 41 42 42 42 42 41 41 41